Time,TemperatureF,DewpointF,PressureIn,WindDirection,WindDirectionDegrees,WindSpeedMPH,WindSpeedGustMPH,Humidity,HourlyPrecipIn,Conditions,Clouds,dailyrainin,SoftwareType,DateUTC
2013-06-07 00:23:00,58.0,-99.9,29.97,ESE,122,5.0,13.0,-999,-99.99,,,-99.99,,2013-06-07 04:23:00,
2013-06-07 00:33:00,58.0,-99.9,29.97,ESE,122,5.0,13.0,-999,-99.99,,,-99.99,,2013-06-07 04:33:00,
2013-06-07 00:42:00,58.0,-99.9,29.97,ESE,122,5.0,13.0,-999,-99.99,,,-99.99,,2013-06-07 04:42:00,
2013-06-07 00:52:00,58.0,-99.9,29.95,SSE,149,10.0,14.0,-999,-99.99,,,-99.99,,2013-06-07 04:52:00,
2013-06-07 01:23:00,58.0,-99.9,29.95,SSE,149,10.0,14.0,-999,-99.99,,,-99.99,,2013-06-07 05:23:00,
2013-06-07 01:32:00,58.0,-99.9,29.95,SSE,149,10.0,14.0,-999,-99.99,,,-99.99,,2013-06-07 05:32:00,
2013-06-07 01:43:00,58.0,-99.9,29.95,SSE,149,10.0,14.0,-999,-99.99,,,-99.99,,2013-06-07 05:43:00,
2013-06-07 01:52:00,59.0,-99.9,29.94,SE,132,7.0,11.0,-999,-99.99,,,-99.99,,2013-06-07 05:52:00,
2013-06-07 02:23:00,59.0,-99.9,29.94,SE,132,7.0,11.0,-999,-99.99,,,-99.99,,2013-06-07 06:23:00,
2013-06-07 02:32:00,59.0,-99.9,29.94,SE,132,7.0,11.0,-999,-99.99,,,-99.99,,2013-06-07 06:32:00,
2013-06-07 02:43:00,59.0,-99.9,29.94,SE,132,7.0,11.0,-999,-99.99,,,-99.99,,2013-06-07 06:43:00,
2013-06-07 02:52:00,58.0,-99.9,29.92,ESE,117,11.0,13.0,-999,-99.99,,,-99.99,,2013-06-07 06:52:00,
2013-06-07 03:22:00,58.0,-99.9,29.92,ESE,117,11.0,13.0,-999,-99.99,,,-99.99,,2013-06-07 07:22:00,
2013-06-07 03:32:00,58.0,-99.9,29.92,ESE,117,11.0,13.0,-999,-99.99,,,-99.99,,2013-06-07 07:32:00,
2013-06-07 03:42:00,58.0,-99.9,29.92,ESE,117,11.0,13.0,-999,-99.99,,,-99.99,,2013-06-07 07:42:00,
2013-06-07 03:52:00,58.0,-99.9,29.89,SE,129,5.0,9.0,-999,-99.99,,,-99.99,,2013-06-07 07:52:00,
2013-06-07 04:22:00,58.0,-99.9,29.89,SE,129,5.0,9.0,-999,-99.99,,,-99.99,,2013-06-07 08:22:00,
2013-06-07 04:32:00,58.0,-99.9,29.89,SE,129,5.0,9.0,-999,-99.99,,,-99.99,,2013-06-07 08:32:00,
2013-06-07 04:43:00,58.0,-99.9,29.89,SE,129,5.0,9.0,-999,-99.99,,,-99.99,,2013-06-07 08:43:00,
2013-06-07 04:52:00,59.0,-99.9,29.87,SE,137,5.0,11.0,-999,-99.99,,,-99.99,,2013-06-07 08:52:00,
2013-06-07 05:33:00,59.0,-99.9,29.87,SE,137,5.0,11.0,-999,-99.99,,,-99.99,,2013-06-07 09:33:00,
2013-06-07 05:43:00,59.0,-99.9,29.87,SE,137,5.0,11.0,-999,-99.99,,,-99.99,,2013-06-07 09:43:00,
2013-06-07 05:52:00,59.0,-99.9,29.86,SE,129,8.0,12.0,-999,-99.99,,,-99.99,,2013-06-07 09:52:00,
2013-06-07 06:23:00,59.0,-99.9,29.86,SE,129,8.0,12.0,-999,-99.99,,,-99.99,,2013-06-07 10:23:00,
2013-06-07 06:33:00,59.0,-99.9,29.86,SE,129,8.0,12.0,-999,-99.99,,,-99.99,,2013-06-07 10:33:00,
2013-06-07 06:43:00,59.0,-99.9,29.86,SE,129,8.0,12.0,-999,-99.99,,,-99.99,,2013-06-07 10:43:00,
2013-06-07 06:52:00,60.0,-99.9,29.86,ESE,110,8.0,17.0,-999,-99.99,,,-99.99,,2013-06-07 10:52:00,
2013-06-07 07:22:00,60.0,-99.9,29.86,ESE,110,8.0,17.0,-999,-99.99,,,-99.99,,2013-06-07 11:22:00,
2013-06-07 07:32:00,60.0,-99.9,29.86,ESE,110,8.0,17.0,-999,-99.99,,,-99.99,,2013-06-07 11:32:00,
2013-06-07 07:42:00,60.0,-99.9,29.86,ESE,110,8.0,17.0,-999,-99.99,,,-99.99,,2013-06-07 11:42:00,
2013-06-07 07:52:00,60.0,-99.9,29.85,SE,140,5.0,16.0,-999,-99.99,,,-99.99,,2013-06-07 11:52:00,
2013-06-07 08:22:00,60.0,-99.9,29.85,SE,140,5.0,16.0,-999,-99.99,,,-99.99,,2013-06-07 12:22:00,
2013-06-07 08:33:00,60.0,-99.9,29.85,SE,140,5.0,16.0,-999,-99.99,,,-99.99,,2013-06-07 12:33:00,
2013-06-07 08:42:00,60.0,-99.9,29.85,SE,140,5.0,16.0,-999,-99.99,,,-99.99,,2013-06-07 12:42:00,
2013-06-07 08:52:00,60.0,-99.9,29.85,SE,129,7.0,16.0,-999,-99.99,,,-99.99,,2013-06-07 12:52:00,
2013-06-07 09:33:00,60.0,-99.9,29.85,SE,129,7.0,16.0,-999,-99.99,,,-99.99,,2013-06-07 13:33:00,
2013-06-07 09:43:00,60.0,-99.9,29.85,SE,129,7.0,16.0,-999,-99.99,,,-99.99,,2013-06-07 13:43:00,
2013-06-07 09:52:00,60.0,-99.9,29.84,ESE,104,8.0,13.0,-999,-99.99,,,-99.99,,2013-06-07 13:52:00,
2013-06-07 10:23:00,60.0,-99.9,29.84,ESE,104,8.0,13.0,-999,-99.99,,,-99.99,,2013-06-07 14:23:00,
2013-06-07 10:33:00,60.0,-99.9,29.84,ESE,104,8.0,13.0,-999,-99.99,,,-99.99,,2013-06-07 14:33:00,
2013-06-07 10:42:00,60.0,-99.9,29.84,ESE,104,8.0,13.0,-999,-99.99,,,-99.99,,2013-06-07 14:42:00,
2013-06-07 10:52:00,61.0,-99.9,29.84,NE,52,6.0,13.0,-999,-99.99,,,-99.99,,2013-06-07 14:52:00,
2013-06-07 11:33:00,61.0,-99.9,29.84,NE,52,6.0,13.0,-999,-99.99,,,-99.99,,2013-06-07 15:33:00,
2013-06-07 11:43:00,61.0,-99.9,29.84,NE,52,6.0,13.0,-999,-99.99,,,-99.99,,2013-06-07 15:43:00,
2013-06-07 11:52:00,60.0,-99.9,29.84,ESE,104,6.0,14.0,-999,-99.99,,,-99.99,,2013-06-07 15:52:00,
2013-06-07 12:22:00,60.0,-99.9,29.84,ESE,104,6.0,14.0,-999,-99.99,,,-99.99,,2013-06-07 16:22:00,
2013-06-07 12:33:00,60.0,-99.9,29.84,ESE,104,6.0,14.0,-999,-99.99,,,-99.99,,2013-06-07 16:33:00,
2013-06-07 12:43:00,60.0,-99.9,29.84,ESE,104,6.0,14.0,-999,-99.99,,,-99.99,,2013-06-07 16:43:00,
2013-06-07 12:52:00,60.0,-99.9,29.81,East,92,9.0,10.0,-999,-99.99,,,-99.99,,2013-06-07 16:52:00,
2013-06-07 13:32:00,60.0,-99.9,29.81,East,92,9.0,10.0,-999,-99.99,,,-99.99,,2013-06-07 17:32:00,
2013-06-07 13:43:00,60.0,-99.9,29.81,East,92,9.0,10.0,-999,-99.99,,,-99.99,,2013-06-07 17:43:00,
2013-06-07 14:29:00,62.0,-99.9,29.80,East,87,7.0,13.0,-999,-99.99,,,-99.99,,2013-06-07 18:29:00,
2013-06-07 14:38:00,62.0,-99.9,29.80,East,87,7.0,13.0,-999,-99.99,,,-99.99,,2013-06-07 18:38:00,
2013-06-07 14:46:00,62.0,-99.9,29.80,East,87,7.0,13.0,-999,-99.99,,,-99.99,,2013-06-07 18:46:00,
2013-06-07 14:52:00,62.0,-99.9,29.77,SE,133,8.0,15.0,-999,-99.99,,,-99.99,,2013-06-07 18:52:00,
2013-06-07 15:30:00,62.0,-99.9,29.77,SE,133,8.0,15.0,-999,-99.99,,,-99.99,,2013-06-07 19:30:00,
2013-06-07 15:41:00,62.0,-99.9,29.77,SE,133,8.0,15.0,-999,-99.99,,,-99.99,,2013-06-07 19:41:00,
2013-06-07 15:52:00,63.0,-99.9,29.75,East,86,-999.0,12.0,-999,-99.99,,,-99.99,,2013-06-07 19:52:00,
2013-06-07 16:28:00,63.0,-99.9,29.75,East,86,-999.0,12.0,-999,-99.99,,,-99.99,,2013-06-07 20:28:00,
2013-06-07 16:43:00,63.0,-99.9,29.75,East,86,-999.0,12.0,-999,-99.99,,,-99.99,,2013-06-07 20:43:00,
2013-06-07 16:52:00,62.0,-99.9,29.72,NNE,33,-999.0,12.0,-999,-99.99,,,-99.99,,2013-06-07 20:52:00,
2013-06-07 17:30:00,62.0,-99.9,29.72,NNE,33,-999.0,12.0,-999,-99.99,,,-99.99,,2013-06-07 21:30:00,
2013-06-07 17:43:00,62.0,-99.9,29.72,NNE,33,-999.0,12.0,-999,-99.99,,,-99.99,,2013-06-07 21:43:00,
2013-06-07 18:39:00,61.0,-99.9,29.71,NE,54,-999.0,11.0,-999,-99.99,,,-99.99,,2013-06-07 22:39:00,
2013-06-07 18:49:00,61.0,-99.9,29.71,NE,54,-999.0,11.0,-999,-99.99,,,-99.99,,2013-06-07 22:49:00,
2013-06-07 18:52:00,61.0,-99.9,29.69,East,80,3.0,17.0,-999,-99.99,,,-99.99,,2013-06-07 22:52:00,
2013-06-07 19:33:00,61.0,-99.9,29.69,East,80,3.0,17.0,-999,-99.99,,,-99.99,,2013-06-07 23:33:00,
2013-06-07 19:42:00,61.0,-99.9,29.69,East,80,3.0,17.0,-999,-99.99,,,-99.99,,2013-06-07 23:42:00,
2013-06-07 19:52:00,60.0,-99.9,29.68,NNE,23,5.0,11.0,-999,-99.99,,,-99.99,,2013-06-07 23:52:00,
2013-06-07 20:32:00,60.0,-99.9,29.68,NNE,23,5.0,11.0,-999,-99.99,,,-99.99,,2013-06-08 00:32:00,
2013-06-07 21:40:00,60.0,-99.9,29.64,NE,36,5.0,16.0,-999,-99.99,,,-99.99,,2013-06-08 01:40:00,
2013-06-07 21:50:00,60.0,-99.9,29.64,NE,36,5.0,16.0,-999,-99.99,,,-99.99,,2013-06-08 01:50:00,
2013-06-07 21:52:00,60.0,-99.9,29.65,NE,42,5.0,11.0,-999,-99.99,,,-99.99,,2013-06-08 01:52:00,
2013-06-07 22:31:00,60.0,-99.9,29.65,NE,42,5.0,11.0,-999,-99.99,,,-99.99,,2013-06-08 02:31:00,
2013-06-07 22:37:00,60.0,-99.9,29.65,NE,42,5.0,11.0,-999,-99.99,,,-99.99,,2013-06-08 02:37:00,
2013-06-07 22:49:00,60.0,-99.9,29.65,NE,42,5.0,11.0,-999,-99.99,,,-99.99,,2013-06-08 02:49:00,
2013-06-07 22:52:00,60.0,-99.9,29.64,ENE,63,5.0,13.0,-999,-99.99,,,-99.99,,2013-06-08 02:52:00,
2013-06-07 23:27:00,60.0,-99.9,29.64,ENE,63,5.0,13.0,-999,-99.99,,,-99.99,,2013-06-08 03:27:00,
2013-06-07 23:40:00,60.0,-99.9,29.64,ENE,63,5.0,13.0,-999,-99.99,,,-99.99,,2013-06-08 03:40:00,
2013-06-07 23:53:00,59.0,-99.9,29.62,NNE,14,3.0,8.0,-999,-99.99,,,-99.99,,2013-06-08 03:53:00,